Home   Weather   Edmundston   Past weeks
Flag for Canada

Past Weather in Edmundston, New Brunswick, Canada — Yesterday and Last 2 Weeks

Now
12 °F

Cold.


Feels Like: 0 °F
Forecast: 14 / 6 °F
Wind: 8 mph from West

Location: Riviere Du Loup

Current Time: Dec 12, 2019 at 2:50:46 pm

Latest Report: Dec 12, 2019 at 2:00 pm


Visibility: N/A

Pressure: 30.51 "Hg

Humidity: 45%

Dew Point: -5 °F

Location of EdmundstonLocation

Past Weather in Edmundston — Graph

°F

Edmundston Temperature Yesterday

Maximum temperature yesterday: 17 °F (at 3:00 pm)
Minimum temperature yesterday: 12 °F (at 4:00 am)
Average temperature yesterday: 14 °F

High & Low Weather Summary for the Past Weeks

 TemperatureHumidityPressure
High49 °F (Dec 10, 12:00 pm)100% (Dec 9, 10:00 pm)30.52 "Hg (Dec 9, 10:00 pm)
Low4 °F (Dec 2, 8:00 am)42% (Dec 12, 6:00 am)29.32 "Hg (Dec 10, 4:00 am)
Average22 °F74%29.91 "Hg
* Reported Nov 27 1:00 pm — Dec 12 1:00 pm, Edmundston. Weather by CustomWeather, © 2019

Note: Actual official high and low records may vary slightly from our data, if they occured in-between our weather recording intervals... More about our weather records

Edmundston Weather History for the Previous 24 Hours

Scroll right to see more
 ConditionsComfort  
Time TempWeatherWind HumidityBarometerVisibility
1:00 pm
Thu, Dec 12
10 °FFrigid.8 mph43%30.52 "HgN/A
12:00 pm9 °FFrigid.7 mph48%30.52 "HgN/A
11:00 am8 °FFrigid.7 mph47%30.52 "HgN/A
10:00 am7 °FFrigid.5 mph48%30.50 "HgN/A
9:00 am5 °FFrigid.6 mph51%30.46 "HgN/A
8:00 am8 °FFrigid.6 mph48%30.42 "HgN/A
7:00 am8 °FFrigid.5 mph53%30.37 "HgN/A
6:00 am10 °FFrigid.8 mph42%30.31 "HgN/A
5:00 am13 °FCold.8 mph45%30.25 "HgN/A
4:00 am15 °FCold.8 mph54%30.18 "HgN/A
3:00 am18 °FCold.8 mph67%30.12 "HgN/A
2:00 am20 °FCold.8 mph67%30.06 "HgN/A
1:00 am18 °FCold.8 mph87%30.03 "HgN/A
12:00 am17 °FCold.6 mph90%30.02 "HgN/A
11:00 pm
Wed, Dec 11
17 °FCold.6 mph72%30.03 "HgN/A
10:00 pm17 °FCold.3 mph60%30.06 "HgN/A
9:00 pm16 °FCold.5 mph60%30.08 "HgN/A
8:00 pm17 °FCold.3 mph56%30.11 "HgN/A
7:00 pm16 °FCold.7 mph63%30.11 "HgN/A
6:00 pm15 °FCold.3 mph69%30.11 "HgN/A
5:00 pm15 °FCold.3 mph73%30.12 "HgN/A
4:00 pm17 °FCold.6 mph64%30.13 "HgN/A
3:00 pm17 °FCold.6 mph61%30.15 "HgN/A
2:00 pm17 °FCold.7 mph64%30.16 "HgN/A
Weather by CustomWeather, © 2019

See weather overview

Advertising